Regional Weather Roundup
Issued by NWS Green Bay, WI

Home | Current Version | Previous Version | Graphics & Text | Print | Product List | Glossary Off
Versions: 1 2 3 4 5 6 7 8 9 10 11 12 13 14 15 16 17 18 19 20 21 22 23 24 25 26 27 28 29 30 31 32 33 34 35 36 37 38 39 40 41 42 43 44 45 46 47 48 49 50

000
ASUS43 KGRB 311600
RWRGRB

NORTH-CENTRAL AND NORTHEAST WISCONSIN REGIONAL WEATHER ROUNDUP
NATIONAL WEATHER SERVICE GREEN BAY WI
1100 AM CDT FRI JUL 31 2015

WIZ005-009-010>012-018-019-311700-
NORTH CENTRAL WISCONSIN

CITY           SKY/WX    TMP DP  RH WIND       PRES   REMARKS
IRONWOOD       SUNNY     70  57  64 W15G21    29.92S
MANITOWISH WTR NOT AVBL
ARBOR VITAE    NOT AVBL
EAGLE RIVER    NOT AVBL
LAND O LAKES   NOT AVBL
RHINELANDER    MOSUNNY   73  53  49 NW13G21   29.97R
PHILLIPS       MOSUNNY   72  55  56 W13       29.97F
ANTIGO         NOT AVBL
TOMAHAWK       NOT AVBL
MERRILL        NOT AVBL
$$

WIZ013-073-311700-
NORTHEAST WISCONSIN

CITY           SKY/WX    TMP DP  RH WIND       PRES   REMARKS
IRON MOUNTAIN  PTSUNNY   75  55  49 NW16G23   29.88S
MARINETTE      SUNNY     75  57  53 NW8       29.87S
$$

WIZ017-030-035>037-045-311700-
CENTRAL WISCONSIN

CITY           SKY/WX    TMP DP  RH WIND       PRES   REMARKS
MEDFORD        NOT AVBL
WAUSAU         MOSUNNY   76  52  43 NW20G28   29.96S
MOSINEE        MOSUNNY   73  54  49 NW18G26   29.99S
MARSHFIELD     SUNNY     75  51  43 NW20G29   30.01S
WISC RAPIDS    MOSUNNY   77  51  40 NW21G28   30.01R
STEVENS POINT  NOT AVBL
WAUPACA        NOT AVBL
SHAWANO        NOT AVBL
CLINTONVILLE   MOSUNNY   77  54  44 NW16G22   29.93F
$$

WIZ038-039-048-051-311700-
FOX VALLEY

CITY           SKY/WX    TMP DP  RH WIND       PRES   REMARKS
NWS GREEN BAY  SUNNY     77  60  55 NW16      29.92R
APPLETON       PTSUNNY   75  55  50 W18G24    29.95S
OSHKOSH        SUNNY     78  53  41 NW21G30   29.95S
FOND DU LAC    MOSUNNY   79  54  41 NW18G28   29.96S
$$

WIZ022-050-052-311700-
EAST CENTRAL WISCONSIN

CITY           SKY/WX    TMP DP  RH WIND       PRES   REMARKS
STURGEON BAY   PTSUNNY   75  57  53 W10       29.91S
MANITOWOC      NOT AVBL
SHEBOYGAN      SUNNY     79  54  41 W20G29    29.93S
$$

LMZ563-521-522-541>543-311700-
LAKESHORE

STATION/POSITION TIME  TEMP    WIND        PRES    VSBY  WAVE
                       AIR SEA DIR/SP/G                  HT/PER
                 (UTC) (F)     (DEG/KT/KT) (MB)    (MI)  (FT/S)
SHEBOYGAN LKSHOR 1500   77     270/ 11/ 14 1013.3F
KEWAUNEE LKSHORE 1500   75     300/  9/ 16 1011.7F
ALGOMA MARINA    1512          280/  8/ 15   N/A
NORTHPORT PIER   1500   71     310/  7/ 14 1011.2S
N MID LAKE BUOY  1450   67 68  270/ 12/ 16 1010.5R         2/ 4
S GREEN BAY BUOY 1500   68 69  270/ 10/ 12 1013.6F
STURGEON BAY CG  1505   80 68  300/  9       N/A       6   1
CHAMBERS ISLAND  1500   74     290/  4/  7 1011.5S
MENOMINEE LKSHOR 1500   73     290/ 10/ 16 1012.6F
$$


USA.gov is the U.S. government's official web portal to all federal, state and local government web resources and services.